Regional Weather Roundup
Issued by NWS

Home | Current Version | Previous Version | Graphics & Text | Print | Product List | Glossary On
Versions: 1 2 3 4 5 6 7 8 9 10 11 12 13 14 15 16 17 18 19 20 21 22 23 24 25 26 27 28 29 30 31 32 33 34 35 36 37 38 39 40 41 42 43 44 45 46 47 48 49 50
104
ASUS45 KCYS 051810
RWRWY

WYOMING REGIONAL WEATHER ROUNDUP
NATIONAL WEATHER SERVICE CHEYENNE WY
1100 AM MST MON DEC 05 2016

NOTE:  "FAIR" INDICATES FEW OR NO CLOUDS BELOW 12,000 FEET
WITH NO SIGNIFICANT WEATHER AND/OR OBSTRUCTIONS TO VISIBILITY.

WYZ001-051900-
YELLOWSTONE NATIONAL PARK

CITY           SKY/WX    TMP DP  RH WIND       PRES   REMARKS
LK YELLOWSTONE   N/A      8  -1  66 W10G16    29.77R WCI  -6
6HR MIN TEMP:  -1; 6HR MAX TEMP:   8;

W YELLOWSTONE  NOT AVBL

$$
WYZ002>013-054>058-071-098>099-051900-
NORTHERN WYOMING

CITY           SKY/WX    TMP DP  RH WIND       PRES   REMARKS
JACKSON        FAIR      14  -4  44 NW23G30   29.85S WCI  -5
CODY           FAIR      19  11  70 N12       29.83R WCI   7
GREYBULL       CLOUDY    26   8  46 NW23G29   29.84  WCI  11
6HR MIN TEMP:  24; 6HR MAX TEMP:  31; 6HR PCP: TRACE;

WORLAND        FAIR      22  14  71 NW17      29.84  WCI   8
6HR MIN TEMP:  22; 6HR MAX TEMP:  27; 6HR PCP: TRACE;

SHERIDAN       PTSUNNY   21  16  81 NW20      29.83  WCI   6
6HR MIN TEMP:  20; 6HR MAX TEMP:  28; 6HR PCP:  0.08;

BUFFALO        LGT SNOW  20  13  74 N30G37    29.75R WCI   1
6HR MIN TEMP:  19; 6HR MAX TEMP:  27; 6HR PCP:  0.04;

GILLETTE       LGT SNOW  19  15  84 NW23      29.74R FOG     WCI   2
6HR MIN TEMP:  20; 6HR MAX TEMP:  27; 6HR PCP:  0.06;

HULETT         LGT SNOW  21  18  86 NW16G24   29.74R WCI   7
NEWCASTLE      LGT SNOW  23  18  80 NW23G35   29.68S WCI   7

$$
WYZ014>020-022>026-101>103-051900-
CENTRAL WYOMING

CITY           SKY/WX    TMP DP  RH WIND       PRES   REMARKS
BIG PINEY      FAIR      17  -1  45 NW16      29.86  WCI   2
6HR MIN TEMP:   2; 6HR MAX TEMP:  21;

PINEDALE       FAIR      14   0  52 NW15G21   29.84S WCI  -1
DUBOIS         FAIR      12  -6  44 W24G36    29.75R WCI  -8
LANDER         FAIR      24  15  68 SE10      29.79R WCI  14
6HR MIN TEMP:  20; 6HR MAX TEMP:  34;

RIVERTON       FAIR      27  -2  28 W17G32    29.79R WCI  14
6HR MIN TEMP:  20; 6HR MAX TEMP:  31; 6HR PCP:  0.01;

CASPER         FOG       18  14  84 N18       29.75R VSB 1   WCI   2
6HR MIN TEMP:  18; 6HR MAX TEMP:  32; 6HR PCP:  0.32;

DOUGLAS        SNOW      21  18  88 NW29G36   29.73R VSB 1/2 WCI   3
6HR MIN TEMP:  21; 6HR MAX TEMP:  31; 6HR PCP: TRACE;


$$
WYZ021-027>030-104>119-051900-
SOUTHERN WYOMING

CITY           SKY/WX    TMP DP  RH WIND       PRES   REMARKS
EVANSTON       FAIR      18  -3  39 W13       29.92  WCI   5
6HR MIN TEMP:  14; 6HR MAX TEMP:  20; 6HR PCP: TRACE;

FORT BRIDGER   CLEAR     19   1  45 W12G18    29.95S WCI   7
ROCK SPRINGS   FAIR      18   3  52 W23G29    29.88  WCI   0
6HR MIN TEMP:  16; 6HR MAX TEMP:  31; 6HR PCP: TRACE;

DIXON          CLOUDY    24   5  43 W18G25    29.88R WCI  11
RAWLINS        FAIR      20   1  43 W32G43    29.75R WCI   1
6HR MIN TEMP:  20; 6HR MAX TEMP:  31; 6HR PCP:  0.03;

SARATOGA       CLOUDY    23   1  39 W24G32    29.79F WCI   7
LARAMIE        CLOUDY    23   6  48 W18G31    29.70R WCI   9
6HR MIN TEMP:  23; 6HR MAX TEMP:  31; 6HR PCP: TRACE;

CHEYENNE       FAIR      34  10  37 W41G52    29.66R WCI  18
6HR MIN TEMP:  34; 6HR MAX TEMP:  42;

TORRINGTON     PTSUNNY   35  24  64 N15G25    29.66R WCI  25
6HR MIN TEMP:  35; 6HR MAX TEMP:  46;

PINE BLUFFS    FAIR      41  21  45 NW26G35   29.65S

$$




USA.gov is the U.S. government's official web portal to all federal, state and local government web resources and services.